N601JG GOBD-GQNO

Flight info

Callsign N601JG
Flight time 0h 55m
Altitude 35000
Route BIKIS1B BIKIS BIKIS1G
Aircraft CL60/M-SBDE1E2E3FGHIJ1J4J5J7M3RWXYZ/LB1V1D1

Departure

Time 2026-04-27 21:01
Airport Blaise Diagne International Airport (GOBD)

Arrival

Time 2026-04-27 21:56
Airport Nouakchott–Oumtounsy International Airport (GQNO)
Time Latitude Longitude Altitude Speed Heading
2026-04-27 20:43 14.69187 -17.06906 230 ft 0 kts 89°
2026-04-27 20:55 14.69188 -17.06876 229 ft 9 kts 90°
2026-04-27 20:55 14.69187 -17.06836 229 ft 1 kts 98°
2026-04-27 20:55 14.69169 -17.06815 229 ft 10 kts 156°
2026-04-27 20:56 14.69105 -17.06812 231 ft 10 kts 201°
2026-04-27 20:56 14.69062 -17.06877 234 ft 7 kts 232°
2026-04-27 20:56 14.68942 -17.06898 238 ft 24 kts 180°
2026-04-27 20:56 14.68790 -17.06896 242 ft 22 kts 180°
2026-04-27 20:57 14.68681 -17.06932 247 ft 15 kts 253°
2026-04-27 20:57 14.68674 -17.07047 249 ft 16 kts 268°
2026-04-27 20:57 14.68577 -17.07105 253 ft 34 kts 181°
2026-04-27 20:57 14.68277 -17.07103 263 ft 42 kts 180°
2026-04-27 20:58 14.67933 -17.07099 279 ft 65 kts 179°
2026-04-27 20:58 14.67480 -17.07095 292 ft 62 kts 180°
2026-04-27 20:58 14.67064 -17.07092 298 ft 52 kts 177°
2026-04-27 20:58 14.66743 -17.07087 298 ft 44 kts 179°
2026-04-27 20:59 14.66424 -17.07086 293 ft 46 kts 181°
2026-04-27 20:59 14.66109 -17.07081 289 ft 45 kts 179°
2026-04-27 20:59 14.65837 -17.07077 285 ft 15 kts 179°
2026-04-27 20:59 14.65670 -17.07077 282 ft 25 kts 177°
2026-04-27 21:00 14.65534 -17.07109 281 ft 16 kts 247°
2026-04-27 21:00 14.65528 -17.07218 282 ft 7 kts 269°
2026-04-27 21:00 14.65545 -17.07267 283 ft 5 kts 345°
2026-04-27 21:00 14.65549 -17.07267 283 ft 2 kts 357°
2026-04-27 21:01 14.65819 -17.07269 289 ft 84 kts 360°
2026-04-27 21:01 14.66694 -17.07278 371 ft 154 kts 358°
2026-04-27 21:01 14.67841 -17.07293 1043 ft 179 kts 359°
2026-04-27 21:01 14.69205 -17.07307 1734 ft 213 kts 359°
2026-04-27 21:02 14.70745 -17.07324 2646 ft 236 kts 358°
2026-04-27 21:02 14.72438 -17.07350 3675 ft 250 kts 357°
2026-04-27 21:02 14.74174 -17.07376 4741 ft 259 kts 358°
2026-04-27 21:02 14.76007 -17.07400 5829 ft 266 kts 358°
2026-04-27 21:03 14.77853 -17.07421 6863 ft 274 kts 358°
2026-04-27 21:03 14.79758 -17.07444 7912 ft 279 kts 358°
2026-04-27 21:03 14.81709 -17.07472 8990 ft 283 kts 358°
2026-04-27 21:03 14.83699 -17.07492 10054 ft 286 kts 358°
2026-04-27 21:04 14.85676 -17.07504 11005 ft 293 kts 358°
2026-04-27 21:04 14.87868 -17.07523 11082 ft 333 kts 358°
2026-04-27 21:04 14.90304 -17.07544 11409 ft 360 kts 358°
2026-04-27 21:04 14.92886 -17.07565 12097 ft 372 kts 358°
2026-04-27 21:05 14.95507 -17.07586 12949 ft 377 kts 357°
2026-04-27 21:05 14.98170 -17.07608 13795 ft 381 kts 356°
2026-04-27 21:05 15.00833 -17.07630 14620 ft 385 kts 356°
2026-04-27 21:05 15.03531 -17.07653 15404 ft 389 kts 356°
2026-04-27 21:06 15.06290 -17.07677 16158 ft 393 kts 356°
2026-04-27 21:06 15.09004 -17.07700 16875 ft 396 kts 356°
2026-04-27 21:06 15.11796 -17.07725 17566 ft 399 kts 356°
2026-04-27 21:06 15.14609 -17.07750 18250 ft 403 kts 356°
2026-04-27 21:07 15.17422 -17.07775 18908 ft 406 kts 356°
2026-04-27 21:07 15.20258 -17.07801 19558 ft 409 kts 356°
2026-04-27 21:07 15.23118 -17.07827 20204 ft 411 kts 356°
2026-04-27 21:07 15.26040 -17.07853 20826 ft 414 kts 356°
2026-04-27 21:08 15.28944 -17.07880 21427 ft 417 kts 356°
2026-04-27 21:08 15.31862 -17.07906 22018 ft 419 kts 356°
2026-04-27 21:08 15.34771 -17.07655 22587 ft 427 kts
2026-04-27 21:08 15.37675 -17.06797 23092 ft 433 kts 13°
2026-04-27 21:09 15.40562 -17.05880 23585 ft 436 kts 13°
2026-04-27 21:09 15.43502 -17.04953 24100 ft 439 kts 13°
2026-04-27 21:09 15.46415 -17.04033 24616 ft 441 kts 13°
2026-04-27 21:09 15.49378 -17.03098 25100 ft 444 kts 13°
2026-04-27 21:10 15.52340 -17.02163 25541 ft 447 kts 13°
2026-04-27 21:10 15.55344 -17.01214 25978 ft 451 kts 13°
2026-04-27 21:10 15.58398 -17.00250 26409 ft 454 kts 13°
2026-04-27 21:10 15.61453 -16.99285 26830 ft 456 kts 13°
2026-04-27 21:11 15.64475 -16.98330 27239 ft 459 kts 12°
2026-04-27 21:11 15.65722 -16.97936 27403 ft 460 kts 12°
2026-04-27 21:11 15.66644 -16.97644 27529 ft 460 kts 12°
2026-04-27 21:12 15.68014 -16.97211 27717 ft 461 kts 12°
2026-04-27 21:12 15.70092 -16.96554 27996 ft 462 kts 12°
2026-04-27 21:12 15.73237 -16.95560 28407 ft 464 kts 12°
2026-04-27 21:12 15.76340 -16.94578 28750 ft 466 kts 12°
2026-04-27 21:13 15.79432 -16.93601 29091 ft 469 kts 12°
2026-04-27 21:13 15.82606 -16.92597 29376 ft 472 kts 12°
2026-04-27 21:13 15.85778 -16.91593 29643 ft 475 kts 12°
2026-04-27 21:13 15.88960 -16.90585 29918 ft 478 kts 12°
2026-04-27 21:14 15.92164 -16.89571 30158 ft 481 kts 12°
2026-04-27 21:14 15.95385 -16.88551 30389 ft 483 kts 12°
2026-04-27 21:14 15.98619 -16.87526 30603 ft 486 kts 12°
2026-04-27 21:14 16.01893 -16.86488 30856 ft 487 kts 12°
2026-04-27 21:15 16.05152 -16.85454 31153 ft 487 kts 12°
2026-04-27 21:15 16.08390 -16.84426 31496 ft 486 kts 11°
2026-04-27 21:15 16.11627 -16.83397 31803 ft 485 kts 11°
2026-04-27 21:15 16.14890 -16.82361 32099 ft 485 kts 11°
2026-04-27 21:16 16.18138 -16.81329 32397 ft 485 kts 11°
2026-04-27 21:16 16.21341 -16.80311 32712 ft 484 kts 11°
2026-04-27 21:16 16.24578 -16.79282 33055 ft 484 kts 11°
2026-04-27 21:16 16.27823 -16.78233 33425 ft 484 kts 13°
2026-04-27 21:17 16.30968 -16.77004 33768 ft 485 kts 15°
2026-04-27 21:17 16.34155 -16.75686 34120 ft 484 kts 15°
2026-04-27 21:17 16.37261 -16.74404 34457 ft 483 kts 15°
2026-04-27 21:17 16.40408 -16.73107 34813 ft 482 kts 15°
2026-04-27 21:18 16.43537 -16.71817 34968 ft 484 kts 15°
2026-04-27 21:18 16.49959 -16.69174 34960 ft 494 kts 15°
2026-04-27 21:19 16.56399 -16.66520 34967 ft 499 kts 15°
2026-04-27 21:19 16.62937 -16.63823 34961 ft 501 kts 15°
2026-04-27 21:20 16.72694 -16.59796 34844 ft 502 kts 15°
2026-04-27 21:20 16.75955 -16.58450 34288 ft 500 kts 15°
2026-04-27 21:20 16.79195 -16.57109 33682 ft 493 kts 15°
2026-04-27 21:21 16.82379 -16.55792 33068 ft 490 kts 15°
2026-04-27 21:21 16.85551 -16.54481 32472 ft 489 kts 15°
2026-04-27 21:21 16.88719 -16.53172 31799 ft 490 kts 15°
2026-04-27 21:21 16.91899 -16.51858 31155 ft 488 kts 15°
2026-04-27 21:22 16.95086 -16.50540 30495 ft 488 kts 15°
2026-04-27 21:22 16.98257 -16.49228 29845 ft 485 kts 15°
2026-04-27 21:22 17.01419 -16.47917 29196 ft 478 kts 15°
2026-04-27 21:22 17.04464 -16.46654 28574 ft 471 kts 15°
2026-04-27 21:23 17.07525 -16.45385 27941 ft 465 kts 15°
2026-04-27 21:23 17.10503 -16.44150 27331 ft 460 kts 16°
2026-04-27 21:23 17.13476 -16.42919 26721 ft 456 kts 16°
2026-04-27 21:23 17.16444 -16.41688 26112 ft 454 kts 16°
2026-04-27 21:24 17.19391 -16.40466 25443 ft 448 kts 16°
2026-04-27 21:24 17.22281 -16.39269 24917 ft 452 kts 16°
2026-04-27 21:24 17.25272 -16.38033 24295 ft 464 kts 17°
2026-04-27 21:24 17.28308 -16.36776 23686 ft 470 kts 17°
2026-04-27 21:25 17.31370 -16.35506 23052 ft 470 kts 17°
2026-04-27 21:25 17.34390 -16.34250 22428 ft 466 kts 18°
2026-04-27 21:25 17.37412 -16.32993 21806 ft 463 kts 18°
2026-04-27 21:25 17.40408 -16.31748 21191 ft 463 kts 18°
2026-04-27 21:26 17.43438 -16.30489 20564 ft 464 kts 19°
2026-04-27 21:26 17.46460 -16.29233 19948 ft 467 kts 19°
2026-04-27 21:26 17.49499 -16.27969 19323 ft 468 kts 19°
2026-04-27 21:26 17.52529 -16.26707 18704 ft 465 kts 19°
2026-04-27 21:27 17.55543 -16.25452 18086 ft 460 kts 19°
2026-04-27 21:27 17.58485 -16.24226 17488 ft 456 kts 20°
2026-04-27 21:27 17.61440 -16.22994 16876 ft 452 kts 19°
2026-04-27 21:27 17.64343 -16.21783 16278 ft 448 kts 19°
2026-04-27 21:28 17.67230 -16.20579 15690 ft 445 kts 19°
2026-04-27 21:28 17.70122 -16.19373 15091 ft 442 kts 19°
2026-04-27 21:28 17.72964 -16.18187 14513 ft 439 kts 19°
2026-04-27 21:28 17.75821 -16.16994 13920 ft 437 kts 19°
2026-04-27 21:29 17.78657 -16.15810 13338 ft 434 kts 19°
2026-04-27 21:29 17.81465 -16.14637 12763 ft 431 kts 19°
2026-04-27 21:29 17.84226 -16.13481 12245 ft 415 kts 19°
2026-04-27 21:29 17.86879 -16.12356 11651 ft 405 kts 21°
2026-04-27 21:30 17.89285 -16.10900 11119 ft 398 kts 35°
2026-04-27 21:30 17.91255 -16.08922 10474 ft 385 kts 50°
2026-04-27 21:30 17.92685 -16.06606 9817 ft 373 kts 63°
2026-04-27 21:30 17.93613 -16.04076 9203 ft 360 kts 76°
2026-04-27 21:31 17.94073 -16.01586 9116 ft 333 kts 84°
2026-04-27 21:31 17.94260 -15.99241 9119 ft 312 kts 89°
2026-04-27 21:31 17.94329 -15.96973 8910 ft 303 kts 91°
2026-04-27 21:31 17.94374 -15.94772 8644 ft 298 kts 89°
2026-04-27 21:32 17.94490 -15.92872 8425 ft 293 kts 85°
2026-04-27 21:32 17.94731 -15.90741 8167 ft 288 kts 82°
2026-04-27 21:32 17.95074 -15.88705 7890 ft 282 kts 78°
2026-04-27 21:32 17.95523 -15.86699 7588 ft 282 kts 74°
2026-04-27 21:33 17.96087 -15.84695 7555 ft 283 kts 70°
2026-04-27 21:33 17.96755 -15.82778 7552 ft 274 kts 62°
2026-04-27 21:33 17.97803 -15.81205 7483 ft 256 kts 39°
2026-04-27 21:33 17.99243 -15.80171 7165 ft 244 kts 18°
2026-04-27 21:34 18.00841 -15.79743 6806 ft 233 kts 357°
2026-04-27 21:34 18.02415 -15.79879 6471 ft 223 kts 339°
2026-04-27 21:34 18.03831 -15.80478 6134 ft 215 kts 327°
2026-04-27 21:34 18.05133 -15.81239 5809 ft 214 kts 327°
2026-04-27 21:35 18.06429 -15.81995 5551 ft 212 kts 327°
2026-04-27 21:35 18.07732 -15.82755 5327 ft 213 kts 328°
2026-04-27 21:35 18.09064 -15.83381 5162 ft 212 kts 347°
2026-04-27 21:35 18.10550 -15.83279 4901 ft 219 kts 18°
2026-04-27 21:36 18.11794 -15.82334 4743 ft 226 kts 52°
2026-04-27 21:36 18.12336 -15.80787 4645 ft 230 kts 88°
2026-04-27 21:36 18.11915 -15.79189 4518 ft 229 kts 127°
2026-04-27 21:36 18.10699 -15.78145 4297 ft 227 kts 152°
2026-04-27 21:37 18.09309 -15.77346 4133 ft 230 kts 151°
2026-04-27 21:37 18.07912 -15.76526 4071 ft 225 kts 151°
2026-04-27 21:37 18.06545 -15.75723 3819 ft 225 kts 150°
2026-04-27 21:37 18.05156 -15.74907 3561 ft 226 kts 150°
2026-04-27 21:38 18.03728 -15.74247 3333 ft 225 kts 171°
2026-04-27 21:38 18.02195 -15.74390 3044 ft 224 kts 205°
2026-04-27 21:38 18.01000 -15.75379 2805 ft 218 kts 240°
2026-04-27 21:38 18.00549 -15.76839 2563 ft 210 kts 274°
2026-04-27 21:39 18.00921 -15.78303 2439 ft 205 kts 304°
2026-04-27 21:39 18.01894 -15.79337 2336 ft 198 kts 329°
2026-04-27 21:39 18.03092 -15.80046 2152 ft 198 kts 332°
2026-04-27 21:39 18.04319 -15.80757 2094 ft 196 kts 332°
2026-04-27 21:40 18.05486 -15.81440 1957 ft 187 kts 332°
2026-04-27 21:40 18.06642 -15.82117 1967 ft 194 kts 332°
2026-04-27 21:40 18.07823 -15.82804 1962 ft 194 kts 334°
2026-04-27 21:40 18.09140 -15.83097 1959 ft 194 kts
2026-04-27 21:41 18.10391 -15.82577 1965 ft 198 kts 37°
2026-04-27 21:41 18.11185 -15.81378 1966 ft 206 kts 70°
2026-04-27 21:41 18.11161 -15.79857 1958 ft 216 kts 109°
2026-04-27 21:41 18.10194 -15.78671 1960 ft 221 kts 147°
2026-04-27 21:42 18.08827 -15.77874 1968 ft 224 kts 150°
2026-04-27 21:42 18.07460 -15.77087 1952 ft 224 kts 150°
2026-04-27 21:42 18.06078 -15.76283 1954 ft 225 kts 150°
2026-04-27 21:42 18.04718 -15.75489 1951 ft 224 kts 150°
2026-04-27 21:43 18.03242 -15.75006 1910 ft 221 kts 184°
2026-04-27 21:43 18.01821 -15.75518 1929 ft 215 kts 224°
2026-04-27 21:43 18.01035 -15.76777 1951 ft 206 kts 262°
2026-04-27 21:43 18.01117 -15.78230 1956 ft 198 kts 297°
2026-04-27 21:44 18.01951 -15.79343 1963 ft 193 kts 327°
2026-04-27 21:44 18.03107 -15.80054 1968 ft 194 kts 332°
2026-04-27 21:44 18.04304 -15.80747 1956 ft 195 kts 332°
2026-04-27 21:44 18.05499 -15.81447 1954 ft 195 kts 332°
2026-04-27 21:45 18.06685 -15.82142 1951 ft 195 kts 332°
2026-04-27 21:45 18.07897 -15.82844 1953 ft 196 kts 335°
2026-04-27 21:45 18.09220 -15.83100 1948 ft 195 kts
2026-04-27 21:45 18.10462 -15.82551 1954 ft 199 kts 38°
2026-04-27 21:46 18.11235 -15.81327 1954 ft 207 kts 72°
2026-04-27 21:46 18.11177 -15.79791 1951 ft 217 kts 111°
2026-04-27 21:46 18.10180 -15.78620 1953 ft 222 kts 148°
2026-04-27 21:46 18.08797 -15.77818 1966 ft 226 kts 150°
2026-04-27 21:47 18.07424 -15.77029 1954 ft 226 kts 149°
2026-04-27 21:47 18.06038 -15.76224 1953 ft 226 kts 149°
2026-04-27 21:47 18.04656 -15.75421 1951 ft 225 kts 151°
2026-04-27 21:47 18.03145 -15.75002 1941 ft 224 kts 187°
2026-04-27 21:48 18.01757 -15.75585 1947 ft 216 kts 227°
2026-04-27 21:48 18.01030 -15.76910 1954 ft 206 kts 265°
2026-04-27 21:48 18.01189 -15.78346 1956 ft 198 kts 299°
2026-04-27 21:48 18.02066 -15.79425 1962 ft 194 kts 328°
2026-04-27 21:49 18.03230 -15.80129 1966 ft 195 kts 332°
2026-04-27 21:49 18.04424 -15.80821 1967 ft 195 kts 332°
2026-04-27 21:49 18.05624 -15.81523 1981 ft 196 kts 332°
2026-04-27 21:49 18.06815 -15.82221 1960 ft 195 kts 332°
2026-04-27 21:50 18.07999 -15.82921 1953 ft 201 kts 331°
2026-04-27 21:50 18.09309 -15.83703 1942 ft 225 kts 331°
2026-04-27 21:50 18.10628 -15.84506 1959 ft 212 kts 330°
2026-04-27 21:50 18.11895 -15.85283 1966 ft 208 kts 330°
2026-04-27 21:51 18.13142 -15.86050 1960 ft 207 kts 330°
2026-04-27 21:51 18.14390 -15.86814 1959 ft 206 kts 330°
2026-04-27 21:51 18.15600 -15.87554 1971 ft 192 kts 331°
2026-04-27 21:51 18.16744 -15.88253 1971 ft 186 kts 331°
2026-04-27 21:52 18.17837 -15.88922 1983 ft 176 kts 331°
2026-04-27 21:52 18.18889 -15.89564 1984 ft 169 kts 331°
2026-04-27 21:52 18.19896 -15.90180 1976 ft 164 kts 331°
2026-04-27 21:52 18.20862 -15.90770 1836 ft 158 kts 331°
2026-04-27 21:53 18.21785 -15.91335 1632 ft 145 kts 331°
2026-04-27 21:53 18.22618 -15.91843 1456 ft 129 kts 331°
2026-04-27 21:53 18.23390 -15.92315 1272 ft 127 kts 330°
2026-04-27 21:53 18.24155 -15.92783 1091 ft 125 kts 330°
2026-04-27 21:54 18.24902 -15.93235 928 ft 125 kts 330°
2026-04-27 21:54 18.25660 -15.93705 763 ft 125 kts 330°
2026-04-27 21:54 18.26406 -15.94161 609 ft 124 kts 329°
2026-04-27 21:54 18.27152 -15.94619 454 ft 124 kts 329°
2026-04-27 21:55 18.27903 -15.95077 288 ft 124 kts 329°
2026-04-27 21:55 18.28650 -15.95533 126 ft 124 kts 329°
2026-04-27 21:55 18.29384 -15.95983 11 ft 113 kts 328°
2026-04-27 21:55 18.29986 -15.96351 9 ft 88 kts 329°
2026-04-27 21:56 18.30478 -15.96651 8 ft 75 kts 329°
2026-04-27 21:56 18.30983 -15.96943 8 ft 19 kts 10°
2026-04-27 21:56 18.31053 -15.96841 8 ft 18 kts 71°
2026-04-27 21:57 18.30955 -15.96737 8 ft 28 kts 150°
2026-04-27 21:57 18.30711 -15.96587 8 ft 49 kts 149°
2026-04-27 21:57 18.30380 -15.96384 8 ft 57 kts 149°
2026-04-27 21:57 18.30091 -15.96198 8 ft 28 kts 154°
2026-04-27 21:58 18.29969 -15.96132 8 ft 10 kts 150°
2026-04-27 21:58 18.29892 -15.96085 8 ft 15 kts 149°
2026-04-27 21:58 18.29732 -15.95987 8 ft 34 kts 149°
2026-04-27 21:58 18.29519 -15.95857 8 ft 29 kts 148°
2026-04-27 21:59 18.29373 -15.95762 8 ft 21 kts 146°
2026-04-27 21:59 18.29266 -15.95705 9 ft 12 kts 151°
2026-04-27 21:59 18.29215 -15.95629 10 ft 15 kts 77°
2026-04-27 21:59 18.29272 -15.95533 8 ft 2 kts 54°
2026-04-27 22:00 18.29280 -15.95522 8 ft 4 kts 44°
2026-04-27 22:00 18.29328 -15.95521 8 ft 6 kts 328°
2026-04-27 22:00 18.29356 -15.95538 8 ft 3 kts 332°
2026-04-27 22:00 18.29359 -15.95540 8 ft 0 kts 331°